"Pseudo-MPEC" for ZTF00HU

Created 2018 Mar 8 21:42:45 UT using Find_Orb

Click here for an explanation of pseudo-MPECs

 
 Astrometry: 
     ZTF00HU tC2018 03 07.24555 10 38 49.32 +28 35 44.5                      I41
     ZTF00HU tC2018 03 07.24590 10 38 54.82 +28 34 41.6                      I41
     ZTF00HU tC2018 03 07.26391 10 43 35.75 +27 39 27.3                      I41
     ZTF00HU tC2018 03 07.26425 10 43 40.63 +27 38 26.1                      I41
     ZTF00HU  C2018 03 070;Astrometry979N,e!@cRo7l\DTNg(we^p^-EW[hhP[Yi0?Te_qI41
     ZTF00HU  C2018 03 07=.cdjasN!p:_@Rl?/redacted;M.wXC0G-OVMhMjwj.AR'n(dtA+I41
     ZTF00HU tC2018 03 07.28417 10 48 19.36 +26 38 54.5                      I41
     ZTF00HU tC2018 03 07.28451 10 48 23.78 +26 37 54.4                      I41
     ZTF00HU tC2018 03 07.28466 10 48 25.87 +26 37 27.1                      I41
     ZTF00HU tC2018 03 07.28501 10 48 30.25 +26 36 27.1                      I41
     ZTF00HU tC2018 03 07.28565 10 48 38.96 +26 34 31.2                      I41
     ZTF00HU tC2018 03 07.28600 10 48 43.42 +26 33 31.6                      I41
     ZTF00HU  C2018 03 07L3J\:23r0Dt=M*j15mwhTX]4:!/[`[Heseeqcw+5a)cY0m#%ls[jI41
     ZTF00HU  C2018 03 075y#=2xaHGsdWXS?a=xLd!RiHL$8Bm:Aq1u)06+1%Ot](9yENEOCPI41
     ZTF00HU tC2018 03 07.30861 10 53 26.09 +25 27 33.5                      I41
     ZTF00HU tC2018 03 07.33597 10 58 35.29 +24 09 18.9                      I41

Station data:
(I41) Palomar Mountain--ZTF  (N33.357340 W116.859780)  US/California. 1.2-m
   f/2.44 Oschin Schmidt + CCD.

Orbital elements:  ZTF00HU
   Perigee 2018 Mar 7.009073 +/- 0.000607 TT =  0:13:03 (JD 2458184.509073)
Epoch 2018 Mar  7.0 TT = JDT 2458184.5                        Gray
M 356.93331 +/- 0.21                (J2000 equator)
n 338.01922826 +/- 1.32             Peri.  333.95994 +/- 0.11
a 44053.0419 +/- 114                Node    16.90999 +/- 0.036
e   0.8023814 +/- 0.00053           Incl.   41.40933 +/- 0.0053
P1533.61m/1.065d           H 32.9   G  0.15   U 12.9
q 8705.70039 +/- 43    Q 79400.3834 +/- 190
From 16 observations 2018 Mar. 7 (2.2 hr); mean residual 1".768
Residuals in arcseconds: 
180307 I41 2.06+ 1.36-    180307 I41 .306- .856+    180307 I41 3.31+ 2.71-
180307 I41 1.47- 1.05+    180307 I41 1.53- 1.01+    180307 I41 3.56+ 2.95-
180307 I41 .188+ .302+    180307 I41 .155- .286+    180307 I41 .623- .906+
180307 I41 1.69- .835+    180307 I41 3.54- 2.28+    180307 I41 1.37- .955+
180307 I41 2.45+ 2.05-    180307 I41 .054- .319-
180307 I41 1.25+ 1.09-    180307 I41 2.07- 2.01+

Residuals in arcseconds cross-track and seconds along-track: 
180307 I41 +.74s .308-    180307 I41 -.28s .390-    180307 I41 +1.5s .560-
180307 I41 -.54s .162+    180307 I41 -.62s .362+    180307 I41 +1.7s .581-
180307 I41 -22ms .350-    180307 I41 -.11s .093-    180307 I41 -.40s .161-
180307 I41 -.58s .534+    180307 I41 -1.4s .888+    180307 I41 -.62s .410+
180307 I41 +1.0s .163-    180307 I41 +65ms .263+
180307 I41 +.54s .053-    180307 I41 -1.0s .041+

Ephemerides (geocentric):
Date (UTC) HH   RA              Dec         delta   r     elong  mag " sig PA
---- -- -- --  ------------   ------------  ------ ------ -----  --- ---- ---
2018 03 08 21  12 55 12.157   +02 37 49.66   61420 0.9931 155.1 17.1 2053 131
2018 03 08 22  13 09 32.345   -00 31 41.91   55453 0.9931 151.2 17.0 2668 131
2018 03 08 23  13 27 47.465   -04 32 16.99   48274 0.9930 145.9 16.9 3749 131
2018 03 09 00  13 53 41.101   -10 05 18.68   39583 0.9930 138.1 16.7 5987 130
2018 03 09 01  14 38 59.990   -18 59 33.58   28873 0.9929 124.9 16.4 205' 127
2018 03 09 02  17 01 01.750   -36 56 23.32   15450 0.9928  90.3 16.2 841' 110
2018 03 09 03  03 08 00.552   +23 58 14.35   11589 0.9928  63.1 17.0  18d  55
2018 03 09 04  07 21 37.228   +41 21 18.43   25486 0.9929 116.1 16.3 253'  93
2018 03 09 05  08 49 53.031   +38 27 55.53   36880 0.9930 132.4 16.7 7615 107
2018 03 09 06  09 34 39.688   +35 10 51.77   46062 0.9931 141.3 16.9 4996 114
2018 03 09 07  10 03 14.826   +32 21 13.18   53619 0.9932 147.2 17.1 3735 118
2018 03 09 08  10 23 59.868   +29 54 56.07   59896 0.9932 151.7 17.2 3017 120
2018 03 09 09  10 40 19.388   +27 45 34.61   65104 0.9933 155.1 17.3 2568 122
2018 03 09 10  10 53 53.814   +25 48 15.90   69384 0.9933 158.0 17.3 2272 124
2018 03 09 11  11 05 39.156   +23 59 28.80   72831 0.9934 160.3 17.4 2072 125
2018 03 09 12  11 16 09.798   +22 16 36.92   75513 0.9934 162.2 17.4 1938 126
2018 03 09 13  11 25 48.582   +20 37 38.51   77476 0.9934 163.7 17.4 1853 127
2018 03 09 14  11 34 51.815   +19 00 52.91   78751 0.9934 164.9 17.4 1809 127
2018 03 09 15  11 43 32.006   +17 24 50.94   79359 0.9935 165.7 17.4 1801 128
2018 03 09 16  11 51 59.532   +15 48 07.38   79309 0.9935 166.0 17.3 1826 128
2018 03 09 17  12 00 23.769   +14 09 14.24   78599 0.9935 165.9 17.3 1889 129
2018 03 09 18  12 08 54.026   +12 26 33.42   77219 0.9935 165.3 17.3 1994 129
2018 03 09 19  12 17 40.496   +10 38 07.28   75148 0.9935 164.2 17.3 2151 130
2018 03 09 20  12 26 55.454   +08 41 24.89   72352 0.9935 162.7 17.3 2379 130
2018 03 09 21  12 36 55.119   +06 32 59.66   68781 0.9934 160.6 17.2 2707 131
2018 03 09 22  12 48 02.914   +04 07 49.37   64366 0.9934 158.0 17.2 3191 131
2018 03 09 23  13 00 56.002   +01 17 58.46   59004 0.9934 154.6 17.1 3937 131
2018 03 10 00  13 16 40.204   -02 10 10.98   52547 0.9933 150.2 16.9 5174 131
2018 03 10 01  13 37 30.532   -06 43 01.67   44767 0.9933 144.0 16.8 7493 131
2018 03 10 02  14 09 14.463   -13 21 05.40   35293 0.9932 134.5 16.5 215' 129
2018 03 10 03  15 14 49.843   -25 03 37.27   23487 0.9931 116.1 16.2 547' 124
2018 03 10 04  21 03 22.191   -37 36 41.26    9811 0.9930  45.8 18??  54d  71
2018 03 10 05  05 34 13.039   +39 03 39.57   17677 0.9931  95.2 16.3 707'  75
2018 03 10 06  08 08 36.501   +40 22 04.80   30680 0.9932 123.7 16.5 263' 100
2018 03 10 07  09 12 06.900   +36 59 02.90   41035 0.9933 135.9 16.8 9194 110
2018 03 10 08  09 48 17.584   +33 52 54.40   49468 0.9934 143.2 17.0 6466 116
2018 03 10 09  10 12 53.619   +31 13 47.65   56446 0.9935 148.5 17.2 5032 119
2018 03 10 10  10 31 27.169   +28 55 14.46   62245 0.9935 152.5 17.2 4174 121
2018 03 10 11  10 46 26.260   +26 51 23.15   67042 0.9936 155.7 17.3 3621 123
2018 03 10 12  10 59 08.023   +24 57 58.08   70956 0.9936 158.4 17.4 3250 124
2018 03 10 13  11 10 17.401   +23 11 53.79   74070 0.9937 160.7 17.4 2999 125
2018 03 10 14  11 20 22.970   +21 30 50.35   76439 0.9937 162.5 17.4 2832 126
2018 03 10 15  11 29 44.315   +19 52 56.15   78106 0.9937 164.1 17.4 2730 127
2018 03 10 16  11 38 35.851   +18 16 36.30   79095 0.9937 165.2 17.4 2683 128
2018 03 10 17  11 47 09.001   +16 40 24.04   79421 0.9937 166.0 17.3 2686 128
2018 03 10 18  11 55 33.580   +15 02 53.75   79090 0.9938 166.3 17.3 2739 129
2018 03 10 19  12 03 58.822   +13 22 34.06   78095 0.9938 166.2 17.3 2845 129
2018 03 10 20  12 12 34.280   +11 37 39.84   76423 0.9938 165.6 17.3 3017 130
2018 03 10 21  12 21 30.858   +09 46 01.29   74048 0.9938 164.4 17.3 3270 130
2018 03 10 22  12 31 02.227   +07 44 47.23   70928 0.9937 162.8 17.2 3638 131
2018 03 10 23  12 41 27.149   +05 29 56.71   67007 0.9937 160.5 17.2 4173 131
2018 03 11 00  12 53 13.806   +02 55 26.65   62202 0.9937 157.7 17.1 4976 131
2018 03 11 01  13 07 08.930   -00 08 34.90   56395 0.9937 153.9 17.0 6251 131
2018 03 11 02  13 24 40.107   -03 59 53.54   49407 0.9936 148.9 16.9 8475 131
2018 03 11 03  13 49 02.561   -09 15 08.13   40961 0.9936 141.6 16.6 217' 130
2018 03 11 04  14 29 57.369   -17 27 02.30   30588 0.9935 129.5 16.4 426' 128
2018 03 11 05  16 21 36.612   -33 34 43.43   17562 0.9934 100.9 16.0  27d 116
2018 03 11 06  01 58 39.837   +11 18 06.16    9886 0.9933  41.2 18??  42d  50
2018 03 11 07  07 01 02.987   +41 25 18.12   23595 0.9934 110.4 16.4 543'  89
2018 03 11 08  08 41 17.901   +38 55 38.16   35381 0.9935 128.9 16.7 264' 106